Regional Weather Roundup
Issued by NWS Little Rock, AR

Home | Current Version | Previous Version | Graphics & Text | Print | Product List | Glossary On
Versions: 1 2 3 4 5 6 7 8 9 10 11 12 13 14 15 16 17 18 19 20 21 22 23 24 25 26 27 28 29 30 31 32 33 34 35 36 37 38 39 40 41 42 43 44 45 46 47 48 49 50
000
ASUS44 KLZK 172105
RWRLZK

WEATHER ROUNDUP FOR ARKANSAS
NATIONAL WEATHER SERVICE LITTLE ROCK AR
400 PM CDT FRI APR 17 2015

NOTE: "FAIR" INDICATES FEW OR NO CLOUDS BELOW 12,000 FEET WITH NO
SIGNIFICANT WEATHER AND/OR OBSTRUCTIONS TO VISIBILITY.

ARZ001-003-010-029-172200-
NORTHWEST ARKANSAS

CITY           SKY/WX    TMP DP  RH WIND       PRES   REMARKS
FAYETTEVILLE   MOSUNNY   77  60  55 MISG      29.96F
FORT SMITH     SUNNY     80  60  50 VRB5      29.95F
HARRISON       MOSUNNY   74  62  66 E6        30.00F
BENTONVILLE    MOSUNNY   79  61  53 SE8       29.98F
ROGERS         MOSUNNY   76  60  57 SE9       29.98F
SILOAM SPGS    MOSUNNY   79  59  50 S6        29.98F
HIGHFILL       MOSUNNY   77  61  57 SE8       29.96F
SPRINGDALE     MOSUNNY   77  59  53 S6        29.99F
$$

ARZ004-005-016-172200-
NORTH CENTRAL ARKANSAS

CITY           SKY/WX    TMP DP  RH WIND       PRES   REMARKS
BATESVILLE     PTSUNNY   73  63  68 S5        30.00F
FLIPPIN          N/A     72 N/A N/A S9        29.99S
MTN HOME       PTSUNNY   70  65  84 SW6       29.98F
$$

ARZ040-041-172200-
WEST CENTRAL ARKANSAS

CITY           SKY/WX    TMP DP  RH WIND       PRES   REMARKS
MENA           MOSUNNY   82  61  47 E5        29.98S
MOUNT IDA      CLOUDY    79  63  57 CALM      29.96F
$$

ARZ009-017-025-026-028-172200-
NORTHEAST ARKANSAS

CITY           SKY/WX    TMP DP  RH WIND       PRES   REMARKS
CORNING        LGT RAIN  77  63  61 SW5       30.01F
JONESBORO      CLOUDY    71  65  81 S3        30.00F
NEWPORT        CLOUDY    74  65  73 CALM      30.01F
WALNUT RIDGE   MOSUNNY   73  64  73 S6        30.00F
BLYTHEVILLE    CLOUDY    72  64  76 E3        30.00F
NW BLYTHEVILLE PTSUNNY   72  63  73 NE5       30.01F
$$

ARZ022-023-033-042-044-172200-
CENTRAL ARKANSAS

CITY           SKY/WX    TMP DP  RH WIND       PRES   REMARKS
LITTLE ROCK    PTSUNNY   78  60  53 E7        29.97F
N LITTLE ROCK  PTSUNNY   77  63  62 E10       29.97F
JACKSONVILLE   PTSUNNY   75  66  73 E2        29.97F
SEARCY         CLOUDY    72  63  73 N6        30.00F
HOT SPRINGS    MOSUNNY   79  62  56 CALM      29.97F
RUSSELLVILLE   MOSUNNY   78  64  61 SE7       29.97F
CLINTON        FAIR      72  64  78 E8        30.01F
$$

ARZ036-172200-
EAST ARKANSAS

CITY           SKY/WX    TMP DP  RH WIND       PRES   REMARKS
WEST MEMPHIS   CLOUDY    72  65  78 N6        29.98F
$$

ARZ050-053-066-070-073-172200-
SOUTHWEST ARKANSAS

CITY           SKY/WX    TMP DP  RH WIND       PRES   REMARKS
ARKADELPHIA    FAIR      83  66  56 CALM      29.95F HX  85
CAMDEN         MOSUNNY   82  59  44 NE6       29.95F
TEXARKANA      MOSUNNY   79  63  57 E6        29.96F
EL DORADO      MOSUNNY   81  63  54 MISG      29.95F
DE QUEEN       MOSUNNY   81  63  54 E10       29.93F
$$

ARZ056-057-069-172200-
SOUTHEAST ARKANSAS

CITY           SKY/WX    TMP DP  RH WIND       PRES   REMARKS
PINE BLUFF     SUNNY     77  63  61 SE7       29.97F
STUTTGART      MOSUNNY   77  61  57 NE7       29.98F
MONTICELLO     CLOUDY    76  63  64 NE5       29.97F

$$





USA.gov is the U.S. government's official web portal to all federal, state and local government web resources and services.